Time,TemperatureF,DewpointF,PressureIn,WindDirection,WindDirectionDegrees,WindSpeedMPH,WindSpeedGustMPH,Humidity,HourlyPrecipIn,Conditions,Clouds,dailyrainin,SoftwareType,DateUTC
2013-03-06 00:00:00,64.4,58.5,30.05,South,180,8.0,11.0,81,0.00,,,0.00,meteohub,2013-03-06 05:00:00,
2013-03-06 00:01:00,64.2,58.6,30.05,West,270,8.0,11.0,82,0.00,,,0.00,meteohub,2013-03-06 05:01:00,
2013-03-06 00:02:00,64.2,58.6,30.05,SE,135,8.0,11.0,82,0.00,,,0.00,meteohub,2013-03-06 05:02:00,
2013-03-06 00:07:00,64.0,58.5,30.06,SE,135,11.0,11.0,82,0.00,,,0.00,meteohub,2013-03-06 05:07:00,
2013-03-06 00:09:00,64.0,58.5,30.06,SW,225,5.0,11.0,82,0.00,,,0.00,meteohub,2013-03-06 05:09:00,
2013-03-06 00:14:00,63.9,58.6,30.05,SW,225,5.0,11.0,83,0.00,,,0.00,meteohub,2013-03-06 05:14:00,
2013-03-06 00:19:00,63.7,58.5,30.06,SW,225,4.0,11.0,83,0.00,,,0.00,meteohub,2013-03-06 05:19:00,
2013-03-06 00:24:00,63.5,58.3,30.06,South,180,7.0,11.0,83,0.00,,,0.00,meteohub,2013-03-06 05:24:00,
2013-03-06 00:29:00,63.5,58.6,30.05,NW,315,2.0,11.0,84,0.00,,,0.00,meteohub,2013-03-06 05:29:00,
2013-03-06 00:34:00,63.3,58.5,30.05,South,180,8.0,10.0,84,0.00,,,0.00,meteohub,2013-03-06 05:34:00,
2013-03-06 00:39:00,63.3,58.8,30.06,North,0,6.0,9.0,85,0.00,,,0.00,meteohub,2013-03-06 05:39:00,
2013-03-06 00:44:00,63.3,58.8,30.05,South,180,4.0,10.0,85,0.00,,,0.00,meteohub,2013-03-06 05:44:00,
2013-03-06 00:49:00,63.3,58.8,30.06,SE,135,8.0,10.0,85,0.00,,,0.00,meteohub,2013-03-06 05:49:00,
2013-03-06 00:54:00,63.3,58.8,30.06,SW,225,4.0,10.0,85,0.00,,,0.00,meteohub,2013-03-06 05:54:00,
2013-03-06 00:59:00,63.1,58.8,30.06,SE,135,3.0,10.0,86,0.00,,,0.00,meteohub,2013-03-06 05:59:00,
2013-03-06 01:04:00,63.0,58.6,30.06,North,0,3.0,10.0,86,0.00,,,0.00,meteohub,2013-03-06 06:04:00,
2013-03-06 01:10:00,63.0,58.6,30.06,South,180,8.0,8.0,86,0.00,,,0.00,meteohub,2013-03-06 06:10:00,
2013-03-06 01:15:00,63.0,58.6,30.05,SE,135,9.0,9.0,86,0.00,,,0.00,meteohub,2013-03-06 06:15:00,
2013-03-06 01:20:00,63.1,59.2,30.05,SW,225,5.0,9.0,87,0.00,,,0.00,meteohub,2013-03-06 06:20:00,
2013-03-06 01:25:00,63.3,59.4,30.05,West,270,6.0,9.0,87,0.00,,,0.00,meteohub,2013-03-06 06:25:00,
2013-03-06 01:30:00,63.3,59.0,30.05,ESE,113,8.0,9.0,86,0.00,,,0.00,meteohub,2013-03-06 06:30:00,
2013-03-06 01:35:00,63.3,59.4,30.05,West,270,2.0,8.0,87,0.00,,,0.00,meteohub,2013-03-06 06:35:00,
2013-03-06 01:40:00,63.1,59.2,30.04,SW,225,12.0,12.0,87,0.00,,,0.00,meteohub,2013-03-06 06:40:00,
2013-03-06 01:45:00,63.3,59.4,30.04,East,90,3.0,12.0,87,0.00,,,0.00,meteohub,2013-03-06 06:45:00,
2013-03-06 01:50:00,63.3,59.4,30.04,SW,225,8.0,12.0,87,0.00,,,0.00,meteohub,2013-03-06 06:50:00,
2013-03-06 01:55:00,63.3,59.7,30.04,SW,225,8.0,12.0,88,0.00,,,0.00,meteohub,2013-03-06 06:55:00,
2013-03-06 02:00:00,63.5,59.9,30.04,West,270,7.0,11.0,88,0.00,,,0.00,meteohub,2013-03-06 07:00:00,
2013-03-06 02:05:00,63.7,60.1,30.04,SW,225,8.0,12.0,88,0.00,,,0.00,meteohub,2013-03-06 07:05:00,
2013-03-06 02:10:00,63.9,59.9,30.04,SE,135,6.0,12.0,87,0.00,,,0.00,meteohub,2013-03-06 07:10:00,
2013-03-06 02:15:00,63.7,60.1,30.04,South,180,6.0,12.0,88,0.00,,,0.00,meteohub,2013-03-06 07:15:00,
2013-03-06 02:20:00,63.9,60.3,30.04,North,0,3.0,8.0,88,0.00,,,0.00,meteohub,2013-03-06 07:20:00,
2013-03-06 02:25:00,64.0,60.4,30.04,WNW,293,5.0,9.0,88,0.00,,,0.00,meteohub,2013-03-06 07:25:00,
2013-03-06 02:30:00,64.0,60.4,30.04,SW,225,7.0,10.0,88,0.00,,,0.00,meteohub,2013-03-06 07:30:00,
2013-03-06 02:35:00,64.0,60.4,30.04,West,270,4.0,10.0,88,0.00,,,0.00,meteohub,2013-03-06 07:35:00,
2013-03-06 02:40:00,63.9,60.6,30.04,SW,225,4.0,8.0,89,0.00,,,0.00,meteohub,2013-03-06 07:40:00,
2013-03-06 02:45:00,63.5,60.4,30.04,SW,225,5.0,8.0,90,0.00,,,0.00,meteohub,2013-03-06 07:45:00,
2013-03-06 02:50:00,63.3,60.6,30.04,West,270,4.0,8.0,91,0.00,,,0.00,meteohub,2013-03-06 07:50:00,
2013-03-06 02:56:00,63.1,60.4,30.04,NW,315,8.0,8.0,91,0.00,,,0.00,meteohub,2013-03-06 07:56:00,
2013-03-06 03:01:00,63.0,60.3,30.03,South,180,6.0,10.0,91,0.00,,,0.00,meteohub,2013-03-06 08:01:00,
2013-03-06 03:06:00,63.0,60.6,30.03,West,270,5.0,10.0,92,0.00,,,0.00,meteohub,2013-03-06 08:06:00,
2013-03-06 03:11:00,62.8,60.4,30.03,SE,135,4.0,10.0,92,0.00,,,0.00,meteohub,2013-03-06 08:11:00,
2013-03-06 03:16:00,62.8,60.4,30.03,South,180,2.0,8.0,92,0.00,,,0.00,meteohub,2013-03-06 08:16:00,
2013-03-06 03:21:00,62.6,60.3,30.03,SW,225,7.0,7.0,92,0.00,,,0.00,meteohub,2013-03-06 08:21:00,
2013-03-06 03:26:00,62.6,60.3,30.02,South,180,8.0,8.0,92,0.00,,,0.00,meteohub,2013-03-06 08:26:00,
2013-03-06 03:31:00,62.8,60.8,30.02,SW,225,4.0,8.0,93,0.00,,,0.00,meteohub,2013-03-06 08:31:00,
2013-03-06 03:36:00,62.8,60.8,30.02,SW,225,6.0,8.0,93,0.00,,,0.00,meteohub,2013-03-06 08:36:00,
2013-03-06 03:41:00,62.8,60.8,30.02,SW,225,5.0,8.0,93,0.00,,,0.00,meteohub,2013-03-06 08:41:00,
2013-03-06 03:46:00,62.8,60.8,30.02,NE,45,4.0,9.0,93,0.00,,,0.00,meteohub,2013-03-06 08:46:00,
2013-03-06 03:51:00,63.0,61.0,30.02,South,180,3.0,10.0,93,0.00,,,0.00,meteohub,2013-03-06 08:51:00,
2013-03-06 03:56:00,63.0,61.0,30.02,West,270,4.0,11.0,93,0.00,,,0.00,meteohub,2013-03-06 08:56:00,
2013-03-06 04:01:00,63.0,61.0,30.02,SSW,203,7.0,11.0,93,0.00,,,0.00,meteohub,2013-03-06 09:01:00,
2013-03-06 04:06:00,63.1,61.2,30.02,SW,225,3.0,9.0,93,0.00,,,0.00,meteohub,2013-03-06 09:06:00,
2013-03-06 04:11:00,63.1,61.2,30.02,SW,225,4.0,9.0,93,0.00,,,0.00,meteohub,2013-03-06 09:11:00,
2013-03-06 04:16:00,63.3,61.5,30.02,SW,225,2.0,9.0,94,0.00,,,0.00,meteohub,2013-03-06 09:16:00,
2013-03-06 04:21:00,63.3,61.5,30.03,South,180,4.0,9.0,94,0.00,,,0.00,meteohub,2013-03-06 09:21:00,
2013-03-06 04:26:00,63.5,61.7,30.03,SW,225,3.0,9.0,94,0.00,,,0.00,meteohub,2013-03-06 09:26:00,
2013-03-06 04:31:00,63.7,61.9,30.03,NW,315,4.0,8.0,94,0.00,,,0.00,meteohub,2013-03-06 09:31:00,
2013-03-06 04:37:00,63.7,61.9,30.04,SW,225,5.0,8.0,94,0.00,,,0.00,meteohub,2013-03-06 09:37:00,
2013-03-06 04:42:00,63.7,61.9,30.04,WSW,248,2.0,8.0,94,0.00,,,0.00,meteohub,2013-03-06 09:42:00,
2013-03-06 04:47:00,63.9,62.1,30.04,SE,135,8.0,8.0,94,0.00,,,0.00,meteohub,2013-03-06 09:47:00,
2013-03-06 04:52:00,63.9,62.1,30.05,SSW,203,8.0,8.0,94,0.00,,,0.00,meteohub,2013-03-06 09:52:00,
2013-03-06 04:57:00,63.9,62.1,30.05,NW,315,6.0,8.0,94,0.00,,,0.00,meteohub,2013-03-06 09:57:00,
2013-03-06 05:02:00,63.9,62.1,30.06,SW,225,8.0,8.0,94,0.00,,,0.00,meteohub,2013-03-06 10:02:00,
2013-03-06 05:07:00,63.9,62.1,30.06,West,270,4.0,8.0,94,0.00,,,0.00,meteohub,2013-03-06 10:07:00,
2013-03-06 05:12:00,63.9,62.1,30.06,SW,225,3.0,8.0,94,0.00,,,0.00,meteohub,2013-03-06 10:12:00,
2013-03-06 05:17:00,63.7,61.9,30.06,NNE,23,2.0,8.0,94,0.00,,,0.00,meteohub,2013-03-06 10:17:00,
2013-03-06 05:22:00,63.7,61.9,30.07,West,270,2.0,6.0,94,0.00,,,0.00,meteohub,2013-03-06 10:22:00,
2013-03-06 05:27:00,63.9,61.9,30.06,NW,315,3.0,6.0,93,0.00,,,0.00,meteohub,2013-03-06 10:27:00,
2013-03-06 05:32:00,63.9,61.9,30.07,West,270,3.0,6.0,93,0.00,,,0.00,meteohub,2013-03-06 10:32:00,
2013-03-06 05:37:00,63.9,61.2,30.07,West,270,3.0,6.0,91,0.00,,,0.00,meteohub,2013-03-06 10:37:00,
2013-03-06 05:42:00,63.7,60.4,30.07,West,270,8.0,8.0,89,0.00,,,0.00,meteohub,2013-03-06 10:42:00,
2013-03-06 05:47:00,63.5,59.9,30.08,South,180,1.0,8.0,88,0.00,,,0.00,meteohub,2013-03-06 10:47:00,
2013-03-06 05:52:00,63.5,59.5,30.08,North,0,4.0,8.0,87,0.00,,,0.00,meteohub,2013-03-06 10:52:00,
2013-03-06 05:57:00,63.3,59.0,30.08,South,180,2.0,8.0,86,0.00,,,0.00,meteohub,2013-03-06 10:57:00,
2013-03-06 06:02:00,63.0,58.1,30.09,NW,315,3.0,4.0,84,0.00,,,0.00,meteohub,2013-03-06 11:02:00,
2013-03-06 06:07:00,63.0,57.4,30.09,West,270,3.0,9.0,82,0.00,,,0.00,meteohub,2013-03-06 11:07:00,
2013-03-06 06:13:00,62.6,57.0,30.09,North,0,6.0,9.0,82,0.00,,,0.00,meteohub,2013-03-06 11:13:00,
2013-03-06 06:18:00,62.2,57.0,30.10,NW,315,2.0,9.0,83,0.00,,,0.00,meteohub,2013-03-06 11:18:00,
2013-03-06 06:23:00,62.1,56.8,30.10,NW,315,3.0,7.0,83,0.00,,,0.00,meteohub,2013-03-06 11:23:00,
2013-03-06 06:28:00,61.9,56.3,30.11,West,270,12.0,12.0,82,0.00,,,0.00,meteohub,2013-03-06 11:28:00,
2013-03-06 06:33:00,61.2,53.2,30.11,North,0,6.0,12.0,75,0.00,,,0.00,meteohub,2013-03-06 11:33:00,
2013-03-06 06:38:00,60.3,52.0,30.11,SSW,203,4.0,12.0,74,0.00,,,0.00,meteohub,2013-03-06 11:38:00,
2013-03-06 06:43:00,59.5,50.9,30.12,NW,315,8.0,12.0,73,0.00,,,0.00,meteohub,2013-03-06 11:43:00,
2013-03-06 06:48:00,58.3,44.4,30.11,North,0,8.0,11.0,60,0.00,,,0.00,meteohub,2013-03-06 11:48:00,
2013-03-06 06:53:00,57.2,42.1,30.12,WNW,293,7.0,11.0,57,0.00,,,0.00,meteohub,2013-03-06 11:53:00,
2013-03-06 06:58:00,56.1,40.6,30.12,NW,315,4.0,11.0,56,0.00,,,0.00,meteohub,2013-03-06 11:58:00,
2013-03-06 07:03:00,55.2,37.9,30.12,ESE,113,7.0,9.0,52,0.00,,,0.00,meteohub,2013-03-06 12:03:00,
2013-03-06 07:08:00,54.7,34.9,30.12,NW,315,5.0,9.0,47,0.00,,,0.00,meteohub,2013-03-06 12:08:00,
2013-03-06 07:13:00,54.0,32.5,30.12,North,0,6.0,9.0,44,0.00,,,0.00,meteohub,2013-03-06 12:13:00,
2013-03-06 07:19:00,53.4,33.1,30.14,NW,315,6.0,11.0,46,0.00,,,0.00,meteohub,2013-03-06 12:19:00,
2013-03-06 07:24:00,53.1,32.9,30.14,SW,225,8.0,11.0,46,0.00,,,0.00,meteohub,2013-03-06 12:24:00,
2013-03-06 07:29:00,52.5,31.8,30.14,NW,315,6.0,11.0,45,0.00,,,0.00,meteohub,2013-03-06 12:29:00,
2013-03-06 07:34:00,52.2,31.5,30.15,North,0,7.0,9.0,45,0.00,,,0.00,meteohub,2013-03-06 12:34:00,
2013-03-06 07:39:00,51.6,32.0,30.15,West,270,5.0,9.0,47,0.00,,,0.00,meteohub,2013-03-06 12:39:00,
2013-03-06 07:44:00,51.3,31.6,30.16,NW,315,6.0,9.0,47,0.00,,,0.00,meteohub,2013-03-06 12:44:00,
2013-03-06 07:49:00,51.1,31.6,30.17,NE,45,2.0,9.0,47,0.00,,,0.00,meteohub,2013-03-06 12:49:00,
2013-03-06 07:54:00,50.9,31.8,30.18,SW,225,4.0,9.0,48,0.00,,,0.00,meteohub,2013-03-06 12:54:00,
2013-03-06 07:59:00,50.9,32.9,30.18,South,180,6.0,9.0,50,0.00,,,0.00,meteohub,2013-03-06 12:59:00,
2013-03-06 08:04:00,50.7,33.3,30.18,NW,315,7.0,9.0,51,0.00,,,0.00,meteohub,2013-03-06 13:04:00,
2013-03-06 08:09:00,50.7,33.8,30.19,East,90,4.0,10.0,52,0.00,,,0.00,meteohub,2013-03-06 13:09:00,
2013-03-06 08:14:00,50.9,34.0,30.19,West,270,3.0,10.0,52,0.00,,,0.00,meteohub,2013-03-06 13:14:00,
2013-03-06 08:19:00,50.9,34.0,30.19,NE,45,4.0,9.0,52,0.00,,,0.00,meteohub,2013-03-06 13:19:00,
2013-03-06 08:24:00,50.9,34.3,30.20,NW,315,6.0,8.0,53,0.00,,,0.00,meteohub,2013-03-06 13:24:00,
2013-03-06 08:29:00,50.9,32.9,30.20,SE,135,9.0,9.0,50,0.00,,,0.00,meteohub,2013-03-06 13:29:00,
2013-03-06 08:34:00,50.7,33.3,30.20,NE,45,4.0,11.0,51,0.00,,,0.00,meteohub,2013-03-06 13:34:00,
2013-03-06 08:40:00,50.9,33.4,30.20,North,0,3.0,11.0,51,0.00,,,0.00,meteohub,2013-03-06 13:40:00,
2013-03-06 08:45:00,51.3,33.8,30.21,NW,315,4.0,11.0,51,0.00,,,0.00,meteohub,2013-03-06 13:45:00,
2013-03-06 08:50:00,51.6,34.5,30.21,NW,315,5.0,9.0,52,0.00,,,0.00,meteohub,2013-03-06 13:50:00,
2013-03-06 08:55:00,52.0,34.0,30.21,North,0,4.0,8.0,50,0.00,,,0.00,meteohub,2013-03-06 13:55:00,
2013-03-06 09:00:00,52.5,33.4,30.21,West,270,5.0,9.0,48,0.00,,,0.00,meteohub,2013-03-06 14:00:00,
2013-03-06 09:05:00,53.1,33.8,30.21,NW,315,4.0,9.0,48,0.00,,,0.00,meteohub,2013-03-06 14:05:00,
2013-03-06 09:10:00,53.6,33.3,30.21,West,270,5.0,9.0,46,0.00,,,0.00,meteohub,2013-03-06 14:10:00,
2013-03-06 09:15:00,54.0,33.1,30.21,NNW,338,7.0,9.0,45,0.00,,,0.00,meteohub,2013-03-06 14:15:00,
2013-03-06 09:20:00,54.3,33.4,30.21,NW,315,6.0,9.0,45,0.00,,,0.00,meteohub,2013-03-06 14:20:00,
2013-03-06 09:25:00,54.7,33.3,30.22,West,270,4.0,10.0,44,0.00,,,0.00,meteohub,2013-03-06 14:25:00,
2013-03-06 09:30:00,54.9,34.0,30.22,West,270,5.0,11.0,45,0.00,,,0.00,meteohub,2013-03-06 14:30:00,
2013-03-06 09:35:00,55.4,34.3,30.22,North,0,4.0,11.0,45,0.00,,,0.00,meteohub,2013-03-06 14:35:00,
2013-03-06 09:40:00,55.2,33.1,30.22,South,180,6.0,11.0,43,0.00,,,0.00,meteohub,2013-03-06 14:40:00,
2013-03-06 09:45:00,55.2,33.1,30.22,West,270,6.0,11.0,43,0.00,,,0.00,meteohub,2013-03-06 14:45:00,
2013-03-06 09:50:00,55.2,33.1,30.22,NW,315,8.0,11.0,43,0.00,,,0.00,meteohub,2013-03-06 14:50:00,
2013-03-06 09:55:00,55.8,32.4,30.22,WNW,293,5.0,9.0,41,0.00,,,0.00,meteohub,2013-03-06 14:55:00,
2013-03-06 10:00:00,56.1,32.7,30.22,SW,225,2.0,11.0,41,0.00,,,0.00,meteohub,2013-03-06 15:00:00,
2013-03-06 10:05:00,56.8,34.0,30.22,SW,225,5.0,11.0,42,0.00,,,0.00,meteohub,2013-03-06 15:05:00,
2013-03-06 10:10:00,57.0,34.2,30.22,East,90,4.0,11.0,42,0.00,,,0.00,meteohub,2013-03-06 15:10:00,
2013-03-06 10:15:00,57.2,33.6,30.22,NW,315,13.0,13.0,41,0.00,,,0.00,meteohub,2013-03-06 15:15:00,
2013-03-06 10:21:00,56.5,31.8,30.22,NNW,338,9.0,13.0,39,0.00,,,0.00,meteohub,2013-03-06 15:21:00,
2013-03-06 10:26:00,56.8,30.9,30.22,NW,315,6.0,13.0,37,0.00,,,0.00,meteohub,2013-03-06 15:26:00,
2013-03-06 10:31:00,57.7,30.2,30.22,West,270,5.0,13.0,35,0.00,,,0.00,meteohub,2013-03-06 15:31:00,
2013-03-06 10:36:00,57.9,31.1,30.22,NW,315,3.0,9.0,36,0.00,,,0.00,meteohub,2013-03-06 15:36:00,
2013-03-06 10:41:00,58.6,31.1,30.21,South,180,3.0,9.0,35,0.00,,,0.00,meteohub,2013-03-06 15:41:00,
2013-03-06 10:46:00,58.8,30.6,30.21,NNW,338,8.0,10.0,34,0.00,,,0.00,meteohub,2013-03-06 15:46:00,
2013-03-06 10:51:00,59.5,30.4,30.21,NW,315,6.0,10.0,33,0.00,,,0.00,meteohub,2013-03-06 15:51:00,
2013-03-06 10:56:00,59.9,30.7,30.21,NW,315,7.0,10.0,33,0.00,,,0.00,meteohub,2013-03-06 15:56:00,
2013-03-06 11:01:00,60.1,30.9,30.20,SW,225,9.0,9.0,33,0.00,,,0.00,meteohub,2013-03-06 16:01:00,
2013-03-06 11:06:00,59.9,30.7,30.20,SW,225,6.0,10.0,33,0.00,,,0.00,meteohub,2013-03-06 16:06:00,
2013-03-06 11:11:00,59.9,30.0,30.19,SW,225,6.0,10.0,32,0.00,,,0.00,meteohub,2013-03-06 16:11:00,
2013-03-06 11:16:00,60.3,28.8,30.19,SW,225,7.0,10.0,30,0.00,,,0.00,meteohub,2013-03-06 16:16:00,
2013-03-06 11:21:00,61.2,28.6,30.19,NW,315,5.0,8.0,29,0.00,,,0.00,meteohub,2013-03-06 16:21:00,
2013-03-06 11:26:00,61.9,27.5,30.19,NW,315,10.0,10.0,27,0.00,,,0.00,meteohub,2013-03-06 16:26:00,
2013-03-06 11:32:00,62.1,25.9,30.18,North,0,8.0,10.0,25,0.00,,,0.00,meteohub,2013-03-06 16:32:00,
2013-03-06 11:37:00,62.4,26.1,30.18,SW,225,8.0,10.0,25,0.00,,,0.00,meteohub,2013-03-06 16:37:00,
2013-03-06 11:42:00,62.4,26.1,30.17,South,180,15.0,15.0,25,0.00,,,0.00,meteohub,2013-03-06 16:42:00,
2013-03-06 11:47:00,62.8,26.4,30.17,North,0,5.0,15.0,25,0.00,,,0.00,meteohub,2013-03-06 16:47:00,
2013-03-06 11:52:00,63.7,27.1,30.16,SW,225,7.0,15.0,25,0.00,,,0.00,meteohub,2013-03-06 16:52:00,
2013-03-06 11:57:00,63.1,26.8,30.16,SW,225,2.0,15.0,25,0.00,,,0.00,meteohub,2013-03-06 16:57:00,
2013-03-06 12:02:00,63.3,24.8,30.16,North,0,8.0,15.0,23,0.00,,,0.00,meteohub,2013-03-06 17:02:00,
2013-03-06 12:07:00,63.0,23.5,30.16,West,270,7.0,15.0,22,0.00,,,0.00,meteohub,2013-03-06 17:07:00,
2013-03-06 12:12:00,63.3,24.8,30.15,East,90,7.0,15.0,23,0.00,,,0.00,meteohub,2013-03-06 17:12:00,
2013-03-06 12:17:00,64.6,28.0,30.15,North,0,2.0,12.0,25,0.00,,,0.00,meteohub,2013-03-06 17:17:00,
2013-03-06 12:22:00,65.5,28.8,30.15,North,0,5.0,9.0,25,0.00,,,0.00,meteohub,2013-03-06 17:22:00,
2013-03-06 12:27:00,66.0,27.1,30.14,SE,135,10.0,10.0,23,0.00,,,0.00,meteohub,2013-03-06 17:27:00,
2013-03-06 12:32:00,66.0,27.1,30.14,WNW,293,5.0,13.0,23,0.00,,,0.00,meteohub,2013-03-06 17:32:00,
2013-03-06 12:37:00,65.8,27.0,30.14,NNW,338,8.0,13.0,23,0.00,,,0.00,meteohub,2013-03-06 17:37:00,
2013-03-06 12:42:00,66.2,27.3,30.14,NNW,338,9.0,13.0,23,0.00,,,0.00,meteohub,2013-03-06 17:42:00,
2013-03-06 12:47:00,66.9,27.9,30.13,NW,315,7.0,13.0,23,0.00,,,0.00,meteohub,2013-03-06 17:47:00,
2013-03-06 12:52:00,67.3,28.2,30.12,NW,315,3.0,10.0,23,0.00,,,0.00,meteohub,2013-03-06 17:52:00,
2013-03-06 12:57:00,67.5,28.4,30.13,NW,315,5.0,9.0,23,0.00,,,0.00,meteohub,2013-03-06 17:57:00,
2013-03-06 13:02:00,67.3,29.3,30.12,SE,135,3.0,8.0,24,0.00,,,0.00,meteohub,2013-03-06 18:02:00,
2013-03-06 13:07:00,68.2,28.9,30.12,NW,315,4.0,10.0,23,0.00,,,0.00,meteohub,2013-03-06 18:07:00,
2013-03-06 13:12:00,68.4,27.0,30.12,South,180,14.0,14.0,21,0.00,,,0.00,meteohub,2013-03-06 18:12:00,
2013-03-06 13:17:00,66.9,26.8,30.11,North,0,3.0,14.0,22,0.00,,,0.00,meteohub,2013-03-06 18:17:00,
2013-03-06 13:22:00,67.8,28.6,30.10,SW,225,7.0,14.0,23,0.00,,,0.00,meteohub,2013-03-06 18:22:00,
2013-03-06 13:27:00,68.0,28.8,30.10,SW,225,7.0,14.0,23,0.00,,,0.00,meteohub,2013-03-06 18:27:00,
2013-03-06 13:32:00,67.5,29.5,30.10,WSW,248,8.0,12.0,24,0.00,,,0.00,meteohub,2013-03-06 18:32:00,
2013-03-06 13:37:00,68.0,27.7,30.08,NE,45,4.0,12.0,22,0.00,,,0.00,meteohub,2013-03-06 18:37:00,
2013-03-06 13:42:00,68.5,29.3,30.08,SW,225,4.0,12.0,23,0.00,,,0.00,meteohub,2013-03-06 18:42:00,
2013-03-06 13:47:00,68.7,29.5,30.08,North,0,6.0,9.0,23,0.00,,,0.00,meteohub,2013-03-06 18:47:00,
2013-03-06 13:52:00,68.9,29.7,30.08,West,270,4.0,9.0,23,0.00,,,0.00,meteohub,2013-03-06 18:52:00,
2013-03-06 13:57:00,68.9,29.7,30.07,SW,225,3.0,10.0,23,0.00,,,0.00,meteohub,2013-03-06 18:57:00,
2013-03-06 14:02:00,68.9,29.7,30.07,NW,315,7.0,10.0,23,0.00,,,0.00,meteohub,2013-03-06 19:02:00,
2013-03-06 14:07:00,69.6,30.2,30.06,East,90,8.0,10.0,23,0.00,,,0.00,meteohub,2013-03-06 19:07:00,
2013-03-06 14:12:00,69.6,29.1,30.06,SW,225,5.0,10.0,22,0.00,,,0.00,meteohub,2013-03-06 19:12:00,
2013-03-06 14:17:00,68.9,29.7,30.05,SW,225,4.0,8.0,23,0.00,,,0.00,meteohub,2013-03-06 19:17:00,
2013-03-06 14:22:00,69.4,30.0,30.05,West,270,8.0,8.0,23,0.00,,,0.00,meteohub,2013-03-06 19:22:00,
2013-03-06 14:27:00,70.0,29.3,30.05,West,270,5.0,7.0,22,0.00,,,0.00,meteohub,2013-03-06 19:27:00,
2013-03-06 14:33:00,69.6,30.2,30.04,West,270,6.0,8.0,23,0.00,,,0.00,meteohub,2013-03-06 19:33:00,
2013-03-06 14:38:00,69.6,31.3,30.04,North,0,8.0,8.0,24,0.00,,,0.00,meteohub,2013-03-06 19:38:00,
2013-03-06 14:43:00,69.6,31.3,30.03,NW,315,6.0,8.0,24,0.00,,,0.00,meteohub,2013-03-06 19:43:00,
2013-03-06 14:48:00,69.4,30.0,30.03,West,270,10.0,10.0,23,0.00,,,0.00,meteohub,2013-03-06 19:48:00,
2013-03-06 14:53:00,68.5,29.3,30.03,West,270,6.0,10.0,23,0.00,,,0.00,meteohub,2013-03-06 19:53:00,
2013-03-06 14:58:00,69.1,30.7,30.03,WNW,293,3.0,10.0,24,0.00,,,0.00,meteohub,2013-03-06 19:58:00,
2013-03-06 15:03:00,69.3,32.0,30.02,North,0,6.0,10.0,25,0.00,,,0.00,meteohub,2013-03-06 20:03:00,
2013-03-06 15:08:00,68.9,32.5,30.02,SW,225,10.0,10.0,26,0.00,,,0.00,meteohub,2013-03-06 20:08:00,
2013-03-06 15:13:00,68.4,33.1,30.01,SW,225,5.0,10.0,27,0.00,,,0.00,meteohub,2013-03-06 20:13:00,
2013-03-06 15:18:00,67.8,32.5,30.01,SW,225,6.0,10.0,27,0.00,,,0.00,meteohub,2013-03-06 20:18:00,
2013-03-06 15:23:00,67.6,33.4,30.00,West,270,4.0,10.0,28,0.00,,,0.00,meteohub,2013-03-06 20:23:00,
2013-03-06 15:28:00,67.8,32.5,30.00,SW,225,7.0,9.0,27,0.00,,,0.00,meteohub,2013-03-06 20:28:00,
2013-03-06 15:33:00,67.8,32.5,30.00,West,270,4.0,9.0,27,0.00,,,0.00,meteohub,2013-03-06 20:33:00,
2013-03-06 15:39:00,68.0,31.8,30.00,SSE,158,7.0,9.0,26,0.00,,,0.00,meteohub,2013-03-06 20:39:00,
2013-03-06 15:44:00,68.4,31.1,30.00,NW,315,7.0,9.0,25,0.00,,,0.00,meteohub,2013-03-06 20:44:00,
2013-03-06 15:49:00,67.6,30.6,30.00,West,270,5.0,8.0,25,0.00,,,0.00,meteohub,2013-03-06 20:49:00,
2013-03-06 15:54:00,67.5,30.4,29.99,North,0,12.0,12.0,25,0.00,,,0.00,meteohub,2013-03-06 20:54:00,
2013-03-06 15:59:00,67.5,31.5,29.99,NW,315,9.0,12.0,26,0.00,,,0.00,meteohub,2013-03-06 20:59:00,
2013-03-06 16:04:00,67.6,34.2,30.00,SW,225,5.0,12.0,29,0.00,,,0.00,meteohub,2013-03-06 21:04:00,
2013-03-06 16:09:00,67.6,33.4,29.99,SW,225,8.0,12.0,28,0.00,,,0.00,meteohub,2013-03-06 21:09:00,
2013-03-06 16:14:00,67.5,34.2,30.00,West,270,4.0,9.0,29,0.00,,,0.00,meteohub,2013-03-06 21:14:00,
2013-03-06 16:19:00,67.3,34.0,29.99,SW,225,4.0,8.0,29,0.00,,,0.00,meteohub,2013-03-06 21:19:00,
2013-03-06 16:24:00,67.1,33.8,29.99,West,270,5.0,8.0,29,0.00,,,0.00,meteohub,2013-03-06 21:24:00,
2013-03-06 16:29:00,66.7,34.3,29.99,NNW,338,3.0,8.0,30,0.00,,,0.00,meteohub,2013-03-06 21:29:00,
2013-03-06 16:34:00,66.7,34.3,29.99,SW,225,4.0,9.0,30,0.00,,,0.00,meteohub,2013-03-06 21:34:00,
2013-03-06 16:39:00,66.6,35.1,29.99,SW,225,9.0,9.0,31,0.00,,,0.00,meteohub,2013-03-06 21:39:00,
2013-03-06 16:45:00,66.6,34.2,29.99,NW,315,4.0,9.0,30,0.00,,,0.00,meteohub,2013-03-06 21:45:00,
2013-03-06 16:50:00,66.9,34.5,29.99,West,270,4.0,9.0,30,0.00,,,0.00,meteohub,2013-03-06 21:50:00,
2013-03-06 16:55:00,67.3,34.7,29.99,West,270,8.0,9.0,30,0.00,,,0.00,meteohub,2013-03-06 21:55:00,
2013-03-06 17:00:00,66.9,33.6,29.98,NW,315,7.0,8.0,29,0.00,,,0.00,meteohub,2013-03-06 22:00:00,
2013-03-06 17:05:00,66.7,33.4,29.99,SW,225,8.0,8.0,29,0.00,,,0.00,meteohub,2013-03-06 22:05:00,
2013-03-06 17:10:00,66.4,32.4,29.99,NW,315,9.0,9.0,28,0.00,,,0.00,meteohub,2013-03-06 22:10:00,
2013-03-06 17:15:00,66.6,33.3,29.99,NW,315,3.0,9.0,29,0.00,,,0.00,meteohub,2013-03-06 22:15:00,
2013-03-06 17:20:00,66.4,33.1,30.00,SW,225,4.0,9.0,29,0.00,,,0.00,meteohub,2013-03-06 22:20:00,
2013-03-06 17:25:00,65.7,33.4,30.00,West,270,5.0,9.0,30,0.00,,,0.00,meteohub,2013-03-06 22:25:00,
2013-03-06 17:30:00,65.3,34.7,30.01,North,0,4.0,7.0,32,0.00,,,0.00,meteohub,2013-03-06 22:30:00,
2013-03-06 17:35:00,64.2,33.8,30.01,SW,225,3.0,8.0,32,0.00,,,0.00,meteohub,2013-03-06 22:35:00,
2013-03-06 17:40:00,63.7,34.7,30.02,SW,225,11.0,13.0,34,0.00,,,0.00,meteohub,2013-03-06 22:40:00,
2013-03-06 17:45:00,62.8,34.7,30.02,NW,315,4.0,13.0,35,0.00,,,0.00,meteohub,2013-03-06 22:45:00,
2013-03-06 17:50:00,62.1,35.4,30.02,West,270,7.0,11.0,37,0.00,,,0.00,meteohub,2013-03-06 22:50:00,
2013-03-06 17:55:00,61.2,35.4,30.02,NW,315,8.0,11.0,38,0.00,,,0.00,meteohub,2013-03-06 22:55:00,
2013-03-06 18:00:00,60.4,35.4,30.02,SW,225,7.0,11.0,39,0.00,,,0.00,meteohub,2013-03-06 23:00:00,
2013-03-06 18:05:00,59.7,36.0,30.02,SW,225,3.0,11.0,41,0.00,,,0.00,meteohub,2013-03-06 23:05:00,
2013-03-06 18:11:00,59.5,36.5,30.03,SW,225,10.0,11.0,42,0.00,,,0.00,meteohub,2013-03-06 23:11:00,
2013-03-06 18:16:00,59.2,36.7,30.03,East,90,2.0,11.0,43,0.00,,,0.00,meteohub,2013-03-06 23:16:00,
2013-03-06 18:21:00,58.8,37.0,30.04,West,270,4.0,10.0,44,0.00,,,0.00,meteohub,2013-03-06 23:21:00,
2013-03-06 18:26:00,58.3,37.0,30.04,SW,225,4.0,10.0,45,0.00,,,0.00,meteohub,2013-03-06 23:26:00,
2013-03-06 18:31:00,57.6,36.3,30.05,North,0,8.0,8.0,45,0.00,,,0.00,meteohub,2013-03-06 23:31:00,
2013-03-06 18:36:00,57.2,36.0,30.05,NE,45,2.0,10.0,45,0.00,,,0.00,meteohub,2013-03-06 23:36:00,
2013-03-06 18:41:00,57.0,36.5,30.06,West,270,4.0,10.0,46,0.00,,,0.00,meteohub,2013-03-06 23:41:00,
2013-03-06 18:46:00,56.7,36.1,30.06,SW,225,4.0,10.0,46,0.00,,,0.00,meteohub,2013-03-06 23:46:00,
2013-03-06 18:51:00,56.3,36.3,30.06,West,270,5.0,8.0,47,0.00,,,0.00,meteohub,2013-03-06 23:51:00,
2013-03-06 18:56:00,56.1,36.1,30.06,North,0,2.0,8.0,47,0.00,,,0.00,meteohub,2013-03-06 23:56:00,
2013-03-06 19:01:00,55.8,36.3,30.06,West,270,5.0,8.0,48,0.00,,,0.00,meteohub,2013-03-07 00:01:00,
2013-03-06 19:06:00,55.6,36.1,30.07,North,0,7.0,8.0,48,0.00,,,0.00,meteohub,2013-03-07 00:06:00,
2013-03-06 19:11:00,55.2,36.3,30.08,SW,225,6.0,8.0,49,0.00,,,0.00,meteohub,2013-03-07 00:11:00,
2013-03-06 19:16:00,55.0,36.1,30.08,North,0,6.0,8.0,49,0.00,,,0.00,meteohub,2013-03-07 00:16:00,
2013-03-06 19:21:00,54.9,36.5,30.09,South,180,4.0,8.0,50,0.00,,,0.00,meteohub,2013-03-07 00:21:00,
2013-03-06 19:26:00,54.7,36.3,30.09,SW,225,5.0,8.0,50,0.00,,,0.00,meteohub,2013-03-07 00:26:00,
2013-03-06 19:31:00,54.3,36.5,30.10,North,0,4.0,8.0,51,0.00,,,0.00,meteohub,2013-03-07 00:31:00,
2013-03-06 19:37:00,54.1,36.3,30.10,SW,225,6.0,7.0,51,0.00,,,0.00,meteohub,2013-03-07 00:37:00,
2013-03-06 19:42:00,53.8,36.5,30.10,SW,225,2.0,7.0,52,0.00,,,0.00,meteohub,2013-03-07 00:42:00,
2013-03-06 19:47:00,53.6,36.3,30.10,WSW,248,5.0,7.0,52,0.00,,,0.00,meteohub,2013-03-07 00:47:00,
2013-03-06 19:52:00,53.4,36.7,30.11,NW,315,4.0,6.0,53,0.00,,,0.00,meteohub,2013-03-07 00:52:00,
2013-03-06 19:57:00,53.1,36.9,30.11,West,270,1.0,5.0,54,0.00,,,0.00,meteohub,2013-03-07 00:57:00,
2013-03-06 20:02:00,52.9,36.7,30.11,SW,225,2.0,5.0,54,0.00,,,0.00,meteohub,2013-03-07 01:02:00,
2013-03-06 20:07:00,52.7,36.5,30.12,West,270,3.0,5.0,54,0.00,,,0.00,meteohub,2013-03-07 01:07:00,
2013-03-06 20:12:00,52.7,37.0,30.12,West,270,2.0,4.0,55,0.00,,,0.00,meteohub,2013-03-07 01:12:00,
2013-03-06 20:17:00,52.5,36.9,30.12,SW,225,3.0,6.0,55,0.00,,,0.00,meteohub,2013-03-07 01:17:00,
2013-03-06 20:22:00,52.3,36.7,30.13,SW,225,2.0,6.0,55,0.00,,,0.00,meteohub,2013-03-07 01:22:00,
2013-03-06 20:27:00,52.3,36.7,30.13,North,0,2.0,4.0,55,0.00,,,0.00,meteohub,2013-03-07 01:27:00,
2013-03-06 20:33:00,52.2,36.5,30.13,West,270,2.0,4.0,55,0.00,,,0.00,meteohub,2013-03-07 01:33:00,
2013-03-06 20:38:00,52.0,36.9,30.14,SW,225,3.0,4.0,56,0.00,,,0.00,meteohub,2013-03-07 01:38:00,
2013-03-06 20:43:00,51.8,36.7,30.14,South,180,2.0,4.0,56,0.00,,,0.00,meteohub,2013-03-07 01:43:00,
2013-03-06 20:48:00,51.8,36.7,30.14,West,270,2.0,4.0,56,0.00,,,0.00,meteohub,2013-03-07 01:48:00,
2013-03-06 20:53:00,51.4,36.7,30.14,WSW,248,2.0,4.0,57,0.00,,,0.00,meteohub,2013-03-07 01:53:00,
2013-03-06 20:58:00,51.3,37.0,30.14,West,270,2.0,4.0,58,0.00,,,0.00,meteohub,2013-03-07 01:58:00,
2013-03-06 21:03:00,51.1,36.9,30.14,East,90,1.0,4.0,58,0.00,,,0.00,meteohub,2013-03-07 02:03:00,
2013-03-06 21:08:00,50.9,36.7,30.15,West,270,2.0,4.0,58,0.00,,,0.00,meteohub,2013-03-07 02:08:00,
2013-03-06 21:13:00,50.7,36.9,30.15,NW,315,1.0,3.0,59,0.00,,,0.00,meteohub,2013-03-07 02:13:00,
2013-03-06 21:18:00,50.5,36.7,30.16,NW,315,1.0,3.0,59,0.00,,,0.00,meteohub,2013-03-07 02:18:00,
2013-03-06 21:23:00,50.5,36.7,30.16,WSW,248,2.0,3.0,59,0.00,,,0.00,meteohub,2013-03-07 02:23:00,
2013-03-06 21:28:00,50.4,37.0,30.17,North,0,1.0,3.0,60,0.00,,,0.00,meteohub,2013-03-07 02:28:00,
2013-03-06 21:33:00,50.0,36.7,30.17,West,270,0.0,2.0,60,0.00,,,0.00,meteohub,2013-03-07 02:33:00,
2013-03-06 21:39:00,49.8,36.9,30.17,West,270,1.0,2.0,61,0.00,,,0.00,meteohub,2013-03-07 02:39:00,
2013-03-06 21:44:00,49.6,37.2,30.18,South,180,1.0,2.0,62,0.00,,,0.00,meteohub,2013-03-07 02:44:00,
2013-03-06 21:49:00,49.5,37.0,30.19,South,180,1.0,2.0,62,0.00,,,0.00,meteohub,2013-03-07 02:49:00,
2013-03-06 21:54:00,49.3,36.9,30.19,South,180,1.0,2.0,62,0.00,,,0.00,meteohub,2013-03-07 02:54:00,
2013-03-06 21:59:00,48.9,36.5,30.19,West,270,0.0,2.0,62,0.00,,,0.00,meteohub,2013-03-07 02:59:00,
2013-03-06 22:04:00,48.7,37.0,30.19,West,270,0.0,2.0,64,0.00,,,0.00,meteohub,2013-03-07 03:04:00,
2013-03-06 22:09:00,48.6,36.9,30.19,West,270,1.0,2.0,64,0.00,,,0.00,meteohub,2013-03-07 03:09:00,
2013-03-06 22:14:00,48.4,36.7,30.19,West,270,0.0,1.0,64,0.00,,,0.00,meteohub,2013-03-07 03:14:00,
2013-03-06 22:19:00,48.2,36.7,30.19,North,0,0.0,1.0,64,0.00,,,0.00,meteohub,2013-03-07 03:19:00,
2013-03-06 22:24:00,48.4,36.7,30.20,NW,315,1.0,1.0,64,0.00,,,0.00,meteohub,2013-03-07 03:24:00,
2013-03-06 22:29:00,48.6,36.9,30.21,NW,315,2.0,4.0,64,0.00,,,0.00,meteohub,2013-03-07 03:29:00,
2013-03-06 22:34:00,48.6,36.5,30.22,North,0,1.0,4.0,63,0.00,,,0.00,meteohub,2013-03-07 03:34:00,
2013-03-06 22:39:00,48.9,36.5,30.22,West,270,3.0,4.0,62,0.00,,,0.00,meteohub,2013-03-07 03:39:00,
2013-03-06 22:44:00,49.1,36.3,30.23,North,0,1.0,4.0,61,0.00,,,0.00,meteohub,2013-03-07 03:44:00,
2013-03-06 22:49:00,48.9,35.6,30.24,West,270,1.0,4.0,60,0.00,,,0.00,meteohub,2013-03-07 03:49:00,
2013-03-06 22:54:00,48.9,35.2,30.25,NW,315,0.0,3.0,59,0.00,,,0.00,meteohub,2013-03-07 03:54:00,
2013-03-06 22:59:00,48.7,35.1,30.25,NW,315,2.0,3.0,59,0.00,,,0.00,meteohub,2013-03-07 03:59:00,
2013-03-06 23:04:00,48.7,35.1,30.25,NW,315,1.0,3.0,59,0.00,,,0.00,meteohub,2013-03-07 04:04:00,
2013-03-06 23:10:00,48.6,34.5,30.25,West,270,3.0,3.0,58,0.00,,,0.00,meteohub,2013-03-07 04:10:00,
2013-03-06 23:15:00,48.6,34.5,30.26,NW,315,2.0,2.0,58,0.00,,,0.00,meteohub,2013-03-07 04:15:00,
2013-03-06 23:20:00,48.4,34.3,30.26,NW,315,2.0,3.0,58,0.00,,,0.00,meteohub,2013-03-07 04:20:00,
2013-03-06 23:25:00,48.4,33.8,30.27,NW,315,1.0,3.0,57,0.00,,,0.00,meteohub,2013-03-07 04:25:00,
2013-03-06 23:30:00,48.2,34.2,30.27,NW,315,2.0,3.0,58,0.00,,,0.00,meteohub,2013-03-07 04:30:00,
2013-03-06 23:35:00,47.8,33.8,30.27,NW,315,0.0,2.0,58,0.00,,,0.00,meteohub,2013-03-07 04:35:00,
2013-03-06 23:40:00,47.8,33.8,30.28,North,0,2.0,2.0,58,0.00,,,0.00,meteohub,2013-03-07 04:40:00,
2013-03-06 23:45:00,47.7,33.6,30.28,North,0,2.0,4.0,58,0.00,,,0.00,meteohub,2013-03-07 04:45:00,
2013-03-06 23:50:00,47.7,33.6,30.28,SW,225,4.0,4.0,58,0.00,,,0.00,meteohub,2013-03-07 04:50:00,
2013-03-06 23:55:00,47.7,33.6,30.29,NE,45,2.0,4.0,58,0.00,,,0.00,meteohub,2013-03-07 04:55:00,